Simultaneous Nadir Overpasses (SNOs) Predictions

Prediction of SNOs between NOAA-20 and METOP-B Satellite Orbit:

Table of predicted SNOs for the next 14.0 days since TLE Epoch: 2/14/2020
Index Date (NOAA-20) Time (NOAA-20) Lat,Lon (NOAA-20) SZA (NOAA-20 ) Date (METOP-B) Time (METOP-B) Lat,Lon (METOP-B) SZA (METOP-B ) Distance(km) Time Diff (sec)
1 02/24/2020 06:59:11 -73.48,-114.57 96.56 02/24/2020 07:00:17 -73.42,-111.67 96.81 91.97 66
2 02/24/2020 07:49:52 73.25, 53.27 83.17 02/24/2020 07:51:01 73.18, 55.14 82.98 60.37 69
3 02/24/2020 08:40:35 -73.19,-139.28 96.92 02/24/2020 08:41:45 -73.10,-137.72 97.11 51.13 70
4 02/24/2020 09:31:16 72.95, 28.55 82.81 02/24/2020 09:32:28 72.91, 29.21 82.71 22.12 72
5 02/24/2020 10:21:59 -72.89,-164.01 97.28 02/24/2020 10:23:12 -72.83,-163.64 97.38 13.96 73
6 02/24/2020 11:12:42 72.75, 3.59 82.56 02/24/2020 11:13:53 72.74, 3.51 82.54 3.15 71
7 02/24/2020 12:03:26 -72.74, 170.93 97.46 02/24/2020 12:04:35 -72.76, 170.88 97.46 2.41 69
8 02/24/2020 12:54:12 72.75, -21.79 82.54 02/24/2020 12:55:14 72.77, -21.76 82.54 1.67 62
9 02/24/2020 13:44:56 -72.74, 145.55 97.49 02/24/2020 13:45:57 -72.74, 145.49 97.51 2.04 61
10 02/24/2020 14:35:42 72.76, -47.17 82.52 02/24/2020 14:36:36 72.75, -47.14 82.49 1.35 54
11 02/24/2020 15:26:26 -72.75, 120.17 97.51 02/24/2020 15:27:18 -72.77, 120.22 97.51 2.70 52
12 02/24/2020 16:17:11 72.71, -72.44 82.44 02/24/2020 16:17:58 72.73, -72.53 82.45 3.33 47
13 02/24/2020 17:07:56 -72.75, 94.79 97.53 02/24/2020 17:08:40 -72.75, 94.84 97.55 1.74 44
14 02/24/2020 17:58:41 72.71, -97.83 82.42 02/24/2020 17:59:20 72.71, -97.91 82.41 2.72 39
15 02/24/2020 18:49:25 -72.70, 69.51 97.61 02/24/2020 18:50:02 -72.73, 69.46 97.59 3.17 37
16 02/24/2020 19:40:11 72.72,-123.21 82.40 02/24/2020 19:40:41 72.74,-123.18 82.41 2.63 30
17 02/24/2020 20:30:55 -72.71, 44.13 97.63 02/24/2020 20:31:24 -72.71, 44.08 97.64 1.73 29
18 02/24/2020 21:21:41 72.72,-148.59 82.37 02/24/2020 21:22:03 72.72,-148.56 82.37 0.85 22
19 02/24/2020 22:12:25 -72.71, 18.75 97.66 02/24/2020 22:12:46 -72.69, 18.70 97.68 3.00 21
20 02/24/2020 23:03:11 72.72,-173.97 82.35 02/24/2020 23:03:25 72.70,-173.94 82.32 2.78 14
21 02/24/2020 23:53:55 -72.71, -6.63 97.68 02/24/2020 23:54:07 -72.72, -6.58 97.68 1.87 12
22 02/25/2020 00:44:40 72.68, 160.75 82.27 02/25/2020 00:44:47 72.68, 160.68 82.28 2.62 7
23 02/25/2020 01:35:25 -72.72, -32.01 97.70 02/25/2020 01:35:29 -72.70, -31.96 97.72 2.63 4
24 02/25/2020 02:26:10 72.68, 135.37 82.25 02/25/2020 02:26:09 72.66, 135.30 82.24 3.33 1
25 02/25/2020 03:16:54 -72.67, -57.29 97.78 02/25/2020 03:16:51 -72.68, -57.34 97.77 2.00 3
26 02/25/2020 04:07:40 72.68, 109.99 82.23 02/25/2020 04:07:30 72.69, 110.02 82.24 1.33 10
27 02/25/2020 04:58:24 -72.67, -82.67 97.80 02/25/2020 04:58:13 -72.66, -82.72 97.81 2.15 11
28 02/25/2020 05:49:10 72.69, 84.61 82.20 02/25/2020 05:48:52 72.67, 84.64 82.19 1.88 18
29 02/25/2020 06:39:54 -72.68,-108.05 97.83 02/25/2020 06:39:34 -72.69,-108.00 97.81 2.49 20
30 02/25/2020 07:30:39 72.64, 59.33 82.13 02/25/2020 07:30:14 72.65, 59.26 82.15 2.88 25
31 02/25/2020 08:21:24 -72.68,-133.43 97.85 02/25/2020 08:20:56 -72.67,-133.38 97.85 2.08 28
32 02/25/2020 09:12:09 72.64, 33.95 82.10 02/25/2020 09:11:36 72.63, 33.88 82.11 2.71 33
33 02/25/2020 10:02:53 -72.63,-158.71 97.93 02/25/2020 10:02:18 -72.65,-158.76 97.90 2.67 35
34 02/25/2020 10:53:39 72.64, 8.57 82.08 02/25/2020 10:52:57 72.66, 8.60 82.11 2.21 42
35 02/25/2020 11:44:23 -72.63, 175.91 97.95 02/25/2020 11:43:40 -72.63, 175.86 97.94 1.56 43
36 02/25/2020 12:35:09 72.65, -16.81 82.06 02/25/2020 12:34:19 72.64, -16.78 82.06 1.22 50
37 02/25/2020 13:25:53 -72.64, 150.53 97.97 02/25/2020 13:25:02 -72.61, 150.48 97.98 3.29 51
38 02/25/2020 14:16:39 72.65, -42.19 82.04 02/25/2020 14:15:41 72.62, -42.16 82.02 3.37 58
39 02/25/2020 15:07:22 -72.64, 125.15 97.99 02/25/2020 15:06:22 -72.64, 125.21 97.98 2.00 60
40 02/25/2020 15:58:07 72.60, -67.47 81.96 02/25/2020 15:57:02 72.60, -67.54 81.98 2.35 65
41 02/25/2020 16:48:52 -72.64, 99.76 98.02 02/25/2020 16:47:44 -72.62, 99.82 98.03 3.15 68
42 02/25/2020 17:39:37 72.61, -92.85 81.93 02/25/2020 17:38:23 72.63, -92.82 81.98 3.19 74
43 02/25/2020 18:30:21 -72.60, 74.49 98.10 02/25/2020 18:29:06 -72.60, 74.44 98.07 1.53 75
44 02/25/2020 19:21:02 72.36,-117.72 81.63 02/25/2020 19:19:50 72.36,-118.71 81.71 33.36 72
45 02/25/2020 20:11:45 -72.30, 49.72 98.45 02/25/2020 20:10:33 -72.33, 48.56 98.33 39.35 72
46 02/25/2020 21:02:26 72.05,-142.50 81.27 02/25/2020 21:01:18 72.03,-144.68 81.40 74.80 68
47 02/25/2020 21:53:09 -71.99, 24.93 98.81 02/25/2020 21:52:01 -72.00, 22.59 98.64 80.43 68




NCC Satellite Simultaneous Nadir Overpasses (SNOs) Prediction Service
